Flag for Brazil Weather past 2 weeks in Salvador, Bahia, Brazil

Now
79 °F

Passing clouds.


Feels Like: 82 °F
Forecast: 75 / 85 °F
Wind: 7 mph from East

Location: Salvador Aeroporto

Current Time: Mar 28, 2015 at 2:14:18 AM

Latest Report: Mar 28, 2015 at 2:00 AM


Visibility: N/A

Pressure: 29.98 "Hg

Humidity: 79%

Dew point: 72 °F

Location of SalvadorLocation

Historic Weather in Salvador — Graph

°F

Salvador temperature yesterday

Maximum temperature yesterday: 84 °F (at 10:00 AM)
Minimum temperature yesterday: 75 °F (at 5:00 AM)
Average temperature yesterday: 81 °F

Past Weeks' High & Low Weather Summary

 TemperatureHumidityPressure
High90 °F (Mar 23, 1:00 PM)94% (Mar 15, 3:00 AM)30.04 "Hg (Mar 15, 3:00 AM)
Low73 °F (Mar 15, 3:00 AM)55% (Mar 14, 2:00 PM)29.83 "Hg (Mar 13, 2:00 PM)
Average82 °F70%29.91 "Hg
* Reported Mar 13 1:00 AM — Mar 28 1:00 AM, Salvador, Weather by CustomWeather, © 2015

Note: Actual official high and low records may vary slightly from our data, if they occured in-between our weather recording intervals... More about our weather records

Advertising

Salvador weather history for previous 24 hours

 ConditionsComfort  
Time TempWeatherWind HumidityBarometerVisibility
1:00 AM
Sat, Mar 28
79 °FPassing clouds.6 mph79%29.98 "HgN/A
12:00 AM79 °FPassing clouds.7 mph79%29.98 "HgN/A
11:00 PM
Fri, Mar 27
81 °FPassing clouds.7 mph70%30.01 "HgN/A
10:00 PM81 °FPassing clouds.8 mph70%30.01 "HgN/A
9:00 PM81 °FPassing clouds.7 mph70%30.01 "HgN/A
8:00 PM81 °FPassing clouds.8 mph74%29.98 "HgN/A
7:00 PM81 °FPassing clouds.6 mph74%29.95 "HgN/A
6:00 PM81 °FPassing clouds.7 mph70%29.95 "HgN/A
5:00 PM82 °FPassing clouds.10 mph66%29.95 "HgN/A
4:00 PM84 °FPassing clouds.6 mph62%29.92 "HgN/A
3:00 PM84 °FPassing clouds.9 mph58%29.95 "HgN/A
2:00 PM84 °FPassing clouds.10 mph62%29.95 "HgN/A
1:00 PM84 °FPassing clouds.10 mph62%29.98 "HgN/A
12:00 PM84 °FPassing clouds.8 mph62%29.98 "HgN/A
11:00 AM84 °FScattered clouds.5 mph62%30.01 "HgN/A
10:00 AM84 °FScattered clouds.8 mph62%30.04 "HgN/A
9:00 AM81 °FScattered clouds.6 mph74%30.04 "HgN/A
8:00 AM79 °FScattered showers. Scattered clouds.6 mph74%N/A5 mi
7:00 AM79 °FScattered clouds.3 mph79%29.98 "HgN/A
6:00 AM77 °FScattered clouds.2 mph79%29.95 "HgN/A
5:00 AM75 °FPassing clouds.2 mph83%29.95 "HgN/A
4:00 AM79 °FPassing clouds.5 mph74%29.92 "HgN/A
3:00 AM81 °FPassing clouds.3 mph70%29.92 "HgN/A
2:00 AM79 °FPassing clouds.5 mph74%29.92 "HgN/A
Weather by CustomWeather, © 2015

See weather overviewHow to use our weather pages